Location: Bastelaar
(51.0950°N, 3.8602°E)
Time: 08:06:16
(UTC+00:00)

BlueWalker 3 - Pass Details

Date: 20 January 2026
Orbit: 450 x 461 km, 53.2° (Epoch: 11 February)

Event Time Altitude Azimuth Distance (km) Brightness Sun altitude
Rises 17:56:34 0° 186° (S) 2,444 5.7 -15.6°
Reaches altitude 10° 18:00:10 10° 147° (SSE) 1,577 4.2 -16.1°
Enters shadow 18:00:19 10° 145° (SE) 1,563 4.2 -16.1°
